This is the latest recevied weather packets stored in our database for station/object HASTNG-WX. If no packets are shown the sender has not sent any weather packets the latest 10 day(s).
| Time | Temp. | Humidity | Pressure | Rain* | Wind** | Luminosity | Snow |
|---|---|---|---|---|---|---|---|
| 1777879851 | 8.89° C | 73% | 975.4 hPa | 0 mm | - | - | - |
| 1777878934 | 8.89° C | 73% | 975.3 hPa | 0 mm | - | - | - |
| 1777878060 | 8.89° C | 73% | 975.3 hPa | 0 mm | - | - | - |
| 1777877133 | 8.33° C | 74% | 976.8 hPa | 0 mm | - | - | - |
| 1777876250 | 8.33° C | 74% | 976.8 hPa | 0 mm | - | - | - |
| 1777875333 | 8.33° C | 74% | 976.8 hPa | 0 mm | - | - | - |
| 1777874467 | 8.33° C | 74% | 976.8 hPa | 0 mm | - | - | - |
| 1777873528 | 8.33° C | 72% | 977.6 hPa | 0 mm | - | - | - |
| 1777872650 | 8.89° C | 73% | 977.1 hPa | 0 mm | - | - | - |
| 1777871732 | 8.33° C | 73% | 977.1 hPa | 0 mm | - | - | - |
| 1777870863 | 8.33° C | 73% | 977.1 hPa | 0 mm | - | - | - |
| 1777869929 | 8.89° C | 70% | 977.6 hPa | 0 mm | - | - | - |
| 1777869052 | 8.89° C | 73% | 977.4 hPa | 0 mm | - | - | - |
| 1777868129 | 8.33° C | 73% | 977.4 hPa | 0 mm | - | - | - |
| 1777867265 | 8.89° C | 73% | 977.4 hPa | 0 mm | - | - | - |
| 1777866329 | 8.89° C | 69% | 978 hPa | 0 mm | - | - | - |
| 1777865450 | 8.89° C | 72% | 978.3 hPa | 0 mm | - | - | - |
| 1777864531 | 8.89° C | 72% | 978.3 hPa | 0 mm | - | - | - |
| 1777863661 | 8.89° C | 72% | 978.3 hPa | 0 mm | - | - | - |
| 1777862729 | 8.89° C | 65% | 978.1 hPa | 0 mm | - | - | - |
| 1777861845 | 8.89° C | 70% | 978.3 hPa | 0 mm | - | - | - |
| 1777860929 | 9.44° C | 70% | 978.3 hPa | 0 mm | - | - | - |
| 1777860060 | 9.44° C | 70% | 978.3 hPa | 0 mm | - | - | - |
| 1777859129 | 9.44° C | 66% | 978.9 hPa | 0 mm | - | - | - |
| 1777858248 | 10° C | 66% | 978.9 hPa | 0 mm | - | - | - |
* Rain latest hour (hover to see other rain measurements)
** Current wind speed in m/s (hover to see current wind gust speed)